UGD880 HUEN-FZAA

Flight info

Callsign UGD880
Flight time 2h 45m
Altitude 32000
Route ANVUT DCT XANTI DCT OPERO/N0406F240 L434 AGVIR/N0455F320 DCT DEPUV DCT KGI/N0404F240 B535 GATSA/N0453F320 UB535 UPARA DCT ILDIV UB535 UDRID UDRID1A
Aircraft A321/M-SDE3FGHIRWY/LB1

Departure

Time 2026-04-28 11:41
Airport Entebbe International Airport (HUEN)

Arrival

Time 2026-04-28 14:26
Airport Ndjili International Airport (FZAA)
Time Latitude Longitude Altitude Speed Heading
2026-04-28 11:24 0.04512 32.44179 3798 ft 0 kts 82°
2026-04-28 11:37 0.04512 32.44181 3798 ft 0 kts 83°
2026-04-28 11:37 0.04517 32.44183 3798 ft 1 kts
2026-04-28 11:37 0.04538 32.44169 3797 ft 6 kts 324°
2026-04-28 11:38 0.04587 32.44134 3794 ft 11 kts 324°
2026-04-28 11:38 0.04665 32.44091 3790 ft 15 kts 342°
2026-04-28 11:38 0.04781 32.44065 3785 ft 19 kts 348°
2026-04-28 11:38 0.04911 32.44012 3779 ft 22 kts 342°
2026-04-28 11:39 0.05066 32.43988 3774 ft 23 kts 352°
2026-04-28 11:39 0.05227 32.43966 3770 ft 24 kts 349°
2026-04-28 11:39 0.05356 32.43862 3767 ft 24 kts 303°
2026-04-28 11:39 0.05448 32.43733 3771 ft 21 kts 324°
2026-04-28 11:40 0.05550 32.43645 3771 ft 15 kts 284°
2026-04-28 11:40 0.05519 32.43626 3772 ft 6 kts 165°
2026-04-28 11:40 0.05472 32.43635 3773 ft 8 kts 171°
2026-04-28 11:40 0.05280 32.43662 3776 ft 56 kts 172°
2026-04-28 11:41 0.04685 32.43745 3782 ft 115 kts 172°
2026-04-28 11:41 0.03711 32.43878 3790 ft 166 kts 171°
2026-04-28 11:41 0.02424 32.44059 3845 ft 200 kts 172°
2026-04-28 11:41 0.01032 32.44218 4385 ft 202 kts 174°
2026-04-28 11:42 -0.00343 32.44369 5023 ft 200 kts 172°
2026-04-28 11:42 -0.01716 32.44483 5643 ft 201 kts 187°
2026-04-28 11:42 -0.02946 32.43912 6228 ft 199 kts 225°
2026-04-28 11:42 -0.03619 32.42739 6807 ft 197 kts 259°
2026-04-28 11:43 -0.03756 32.41391 7348 ft 197 kts 266°
2026-04-28 11:43 -0.03863 32.39981 7727 ft 209 kts 267°
2026-04-28 11:43 -0.03945 32.38504 8176 ft 218 kts 268°
2026-04-28 11:43 -0.04048 32.36979 8689 ft 224 kts 263°
2026-04-28 11:44 -0.04333 32.35437 9136 ft 233 kts 255°
2026-04-28 11:44 -0.04811 32.33814 9400 ft 253 kts 251°
2026-04-28 11:44 -0.05312 32.32053 9736 ft 270 kts 263°
2026-04-28 11:44 -0.05212 32.30125 10130 ft 284 kts 283°
2026-04-28 11:45 -0.04693 32.28132 10417 ft 304 kts 285°
2026-04-28 11:45 -0.04106 32.26041 10753 ft 321 kts 285°
2026-04-28 11:45 -0.03512 32.23847 11234 ft 333 kts 284°
2026-04-28 11:45 -0.02920 32.21586 11791 ft 341 kts 283°
2026-04-28 11:46 -0.02333 32.19287 12452 ft 345 kts 283°
2026-04-28 11:46 -0.01740 32.16939 12933 ft 354 kts 283°
2026-04-28 11:46 -0.01132 32.14531 13400 ft 362 kts 283°
2026-04-28 11:46 -0.00508 32.12066 13998 ft 365 kts 284°
2026-04-28 11:47 0.00115 32.09605 14558 ft 367 kts 284°
2026-04-28 11:47 0.00742 32.07128 15066 ft 370 kts 284°
2026-04-28 11:47 0.01377 32.04622 15546 ft 373 kts 284°
2026-04-28 11:47 0.02014 32.02108 15937 ft 378 kts 284°
2026-04-28 11:48 0.02669 31.99524 16148 ft 388 kts 284°
2026-04-28 11:48 0.03338 31.96889 16403 ft 396 kts 284°
2026-04-28 11:48 0.04023 31.94187 16514 ft 401 kts 284°
2026-04-28 11:48 0.04710 31.91476 16687 ft 405 kts 284°
2026-04-28 11:49 0.05401 31.88746 16956 ft 406 kts 285°
2026-04-28 11:49 0.06090 31.86017 17246 ft 407 kts 285°
2026-04-28 11:49 0.06783 31.83276 17543 ft 409 kts 285°
2026-04-28 11:49 0.07479 31.80524 17855 ft 410 kts 285°
2026-04-28 11:50 0.08179 31.77756 18184 ft 412 kts 285°
2026-04-28 11:50 0.08886 31.74963 18534 ft 414 kts 285°
2026-04-28 11:50 0.09558 31.72162 18897 ft 416 kts 283°
2026-04-28 11:50 0.10063 31.69319 19276 ft 418 kts 279°
2026-04-28 11:51 0.10373 31.66435 19665 ft 420 kts 275°
2026-04-28 11:51 0.10567 31.63518 20062 ft 423 kts 275°
2026-04-28 11:51 0.10744 31.60586 20461 ft 425 kts 275°
2026-04-28 11:51 0.10920 31.57638 20859 ft 427 kts 275°
2026-04-28 11:52 0.11100 31.54658 21254 ft 429 kts 275°
2026-04-28 11:52 0.11282 31.51685 21640 ft 430 kts 275°
2026-04-28 11:52 0.11466 31.48695 22022 ft 432 kts 275°
2026-04-28 11:52 0.11652 31.45701 22395 ft 434 kts 275°
2026-04-28 11:53 0.11839 31.42702 22760 ft 435 kts 275°
2026-04-28 11:53 0.12028 31.39679 23122 ft 437 kts 275°
2026-04-28 11:53 0.12217 31.36650 23476 ft 438 kts 275°
2026-04-28 11:53 0.12409 31.33588 23825 ft 440 kts 275°
2026-04-28 11:54 0.12597 31.30545 24161 ft 441 kts 275°
2026-04-28 11:54 0.12787 31.27483 24496 ft 442 kts 275°
2026-04-28 11:54 0.12978 31.24410 24822 ft 444 kts 275°
2026-04-28 11:54 0.13170 31.21332 25142 ft 445 kts 276°
2026-04-28 11:55 0.13361 31.18266 25455 ft 446 kts 276°
2026-04-28 11:55 0.13574 31.15188 25954 ft 442 kts 272°
2026-04-28 11:55 0.13768 31.12142 26610 ft 435 kts 272°
2026-04-28 11:55 0.13937 31.09329 26946 ft 434 kts 272°
2026-04-28 11:56 0.14118 31.06312 27157 ft 437 kts 272°
2026-04-28 11:56 0.14303 31.03272 27374 ft 439 kts 272°
2026-04-28 11:56 0.14490 31.00228 27606 ft 441 kts 272°
2026-04-28 11:56 0.14680 30.97166 27836 ft 443 kts 272°
2026-04-28 11:57 0.14871 30.94098 28058 ft 445 kts 272°
2026-04-28 11:57 0.15065 30.90985 28286 ft 446 kts 272°
2026-04-28 11:57 0.15259 30.87886 28517 ft 447 kts 272°
2026-04-28 11:57 0.15453 30.84778 28747 ft 449 kts 272°
2026-04-28 11:58 0.15647 30.81661 28972 ft 450 kts 272°
2026-04-28 11:58 0.15842 30.78544 29190 ft 451 kts 272°
2026-04-28 11:58 0.16037 30.75423 29403 ft 452 kts 273°
2026-04-28 11:58 0.16232 30.72290 29606 ft 453 kts 273°
2026-04-28 11:59 0.16430 30.69127 29810 ft 454 kts 273°
2026-04-28 11:59 0.16627 30.65978 29993 ft 456 kts 273°
2026-04-28 11:59 0.16824 30.62818 30171 ft 457 kts 273°
2026-04-28 11:59 0.17021 30.59652 30345 ft 458 kts 273°
2026-04-28 12:00 0.17220 30.56478 30513 ft 459 kts 273°
2026-04-28 12:00 0.17418 30.53298 30677 ft 460 kts 273°
2026-04-28 12:00 0.17617 30.50115 30827 ft 460 kts 273°
2026-04-28 12:00 0.17817 30.46904 30975 ft 461 kts 273°
2026-04-28 12:01 0.18017 30.43709 31108 ft 462 kts 273°
2026-04-28 12:01 0.18216 30.40511 31238 ft 463 kts 273°
2026-04-28 12:01 0.18417 30.37296 31370 ft 464 kts 273°
2026-04-28 12:01 0.18616 30.34100 31502 ft 465 kts 273°
2026-04-28 12:02 0.18816 30.30872 31640 ft 465 kts 273°
2026-04-28 12:02 0.19016 30.27651 31767 ft 466 kts 273°
2026-04-28 12:02 0.19218 30.24405 31883 ft 467 kts 273°
2026-04-28 12:02 0.19419 30.21169 32006 ft 468 kts 273°
2026-04-28 12:03 0.19620 30.17932 32121 ft 468 kts 273°
2026-04-28 12:03 0.19822 30.14702 32125 ft 467 kts 273°
2026-04-28 12:03 0.20224 30.08233 32129 ft 467 kts 273°
2026-04-28 12:04 0.20627 30.01751 32130 ft 467 kts 273°
2026-04-28 12:04 0.21029 29.95273 32130 ft 467 kts 273°
2026-04-28 12:05 0.21431 29.88805 32130 ft 467 kts 273°
2026-04-28 12:05 0.21820 29.82335 32130 ft 467 kts 273°
2026-04-28 12:06 0.22206 29.75841 32130 ft 467 kts 273°
2026-04-28 12:06 0.22586 29.69426 32075 ft 463 kts 273°
2026-04-28 12:07 0.22966 29.63022 32027 ft 463 kts 273°
2026-04-28 12:07 0.23348 29.56581 32009 ft 463 kts 273°
2026-04-28 12:08 0.23725 29.50180 32004 ft 463 kts 273°
2026-04-28 12:08 0.24105 29.43767 32002 ft 463 kts 273°
2026-04-28 12:09 0.24500 29.37374 32001 ft 463 kts 273°
2026-04-28 12:09 0.24905 29.30946 32001 ft 463 kts 273°
2026-04-28 12:10 0.25305 29.24539 32001 ft 463 kts 273°
2026-04-28 12:10 0.25703 29.18140 32001 ft 463 kts 273°
2026-04-28 12:11 0.26103 29.11721 32001 ft 463 kts 273°
2026-04-28 12:11 0.26502 29.05319 32001 ft 463 kts 273°
2026-04-28 12:12 0.26900 28.98919 32002 ft 463 kts 273°
2026-04-28 12:12 0.27300 28.92522 32001 ft 463 kts 273°
2026-04-28 12:13 0.27700 28.86102 32001 ft 463 kts 273°
2026-04-28 12:13 0.28098 28.79701 32001 ft 463 kts 272°
2026-04-28 12:14 0.28495 28.73301 32001 ft 463 kts 272°
2026-04-28 12:14 0.28894 28.66877 32001 ft 464 kts 272°
2026-04-28 12:15 0.29292 28.60474 32002 ft 464 kts 272°
2026-04-28 12:15 0.29690 28.54062 32001 ft 463 kts 272°
2026-04-28 12:16 0.30088 28.47662 32001 ft 463 kts 272°
2026-04-28 12:16 0.30487 28.41237 32001 ft 463 kts 272°
2026-04-28 12:17 0.30885 28.34836 32002 ft 463 kts 272°
2026-04-28 12:17 0.31282 28.28422 32001 ft 463 kts 272°
2026-04-28 12:18 0.31681 28.21988 32002 ft 464 kts 272°
2026-04-28 12:18 0.32078 28.15587 32001 ft 463 kts 272°
2026-04-28 12:19 0.32475 28.09186 32000 ft 463 kts 272°
2026-04-28 12:19 0.32871 28.02781 32002 ft 463 kts 272°
2026-04-28 12:20 0.33270 27.96344 32001 ft 464 kts 272°
2026-04-28 12:20 0.33669 27.89935 32001 ft 464 kts 272°
2026-04-28 12:21 0.34068 27.83533 32000 ft 464 kts 272°
2026-04-28 12:21 0.34467 27.77104 31998 ft 465 kts 272°
2026-04-28 12:22 0.34867 27.70655 31996 ft 467 kts 272°
2026-04-28 12:22 0.35267 27.64198 31995 ft 467 kts 272°
2026-04-28 12:23 0.35666 27.57739 31993 ft 467 kts 272°
2026-04-28 12:23 0.36066 27.51260 31994 ft 467 kts 272°
2026-04-28 12:24 0.36465 27.44807 31994 ft 467 kts 272°
2026-04-28 12:24 0.36864 27.38360 31994 ft 467 kts 272°
2026-04-28 12:25 0.37265 27.31859 31994 ft 467 kts 272°
2026-04-28 12:25 0.37663 27.25402 31994 ft 467 kts 272°
2026-04-28 12:26 0.38060 27.18954 31995 ft 467 kts 272°
2026-04-28 12:26 0.38459 27.12499 31994 ft 467 kts 272°
2026-04-28 12:27 0.38858 27.06016 31994 ft 467 kts 272°
2026-04-28 12:27 0.39257 26.99553 31994 ft 468 kts 273°
2026-04-28 12:28 0.39656 26.93081 31994 ft 468 kts 273°
2026-04-28 12:28 0.40057 26.86582 31994 ft 469 kts 273°
2026-04-28 12:29 0.40659 26.76856 31995 ft 469 kts 273°
2026-04-28 12:30 0.41060 26.70371 31994 ft 469 kts 273°
2026-04-28 12:30 0.41462 26.63854 31994 ft 469 kts 273°
2026-04-28 12:31 0.41862 26.57377 31994 ft 469 kts 273°
2026-04-28 12:31 0.42262 26.50894 31994 ft 469 kts 273°
2026-04-28 12:32 0.42662 26.44406 31994 ft 469 kts 273°
2026-04-28 12:32 0.43064 26.37896 31995 ft 469 kts 273°
2026-04-28 12:33 0.43464 26.31393 31994 ft 469 kts 273°
2026-04-28 12:33 0.43862 26.24911 31994 ft 469 kts 273°
2026-04-28 12:34 0.44263 26.18392 31994 ft 469 kts 273°
2026-04-28 12:34 0.44662 26.11909 31994 ft 469 kts 273°
2026-04-28 12:35 0.45062 26.05426 31994 ft 469 kts 273°
2026-04-28 12:35 0.45462 25.98928 31994 ft 469 kts 273°
2026-04-28 12:36 0.45863 25.92422 31994 ft 469 kts 273°
2026-04-28 12:36 0.46263 25.85941 31994 ft 469 kts 273°
2026-04-28 12:37 0.46662 25.79451 31997 ft 469 kts 273°
2026-04-28 12:37 0.47062 25.72960 32009 ft 468 kts 273°
2026-04-28 12:38 0.47459 25.66501 32016 ft 467 kts 273°
2026-04-28 12:38 0.47856 25.60040 32019 ft 468 kts 273°
2026-04-28 12:39 0.48255 25.53557 32019 ft 467 kts 273°
2026-04-28 12:39 0.48653 25.47074 32019 ft 467 kts 273°
2026-04-28 12:40 0.48989 25.40607 32018 ft 467 kts 270°
2026-04-28 12:40 0.48543 25.34164 32020 ft 467 kts 261°
2026-04-28 12:41 0.47091 25.27827 32019 ft 467 kts 252°
2026-04-28 12:41 0.44682 25.21822 32020 ft 467 kts 244°
2026-04-28 12:42 0.41806 25.16009 32018 ft 468 kts 244°
2026-04-28 12:42 0.38907 25.10207 32019 ft 469 kts 244°
2026-04-28 12:43 0.35983 25.04345 32017 ft 474 kts 245°
2026-04-28 12:43 0.33047 24.98427 32018 ft 478 kts 245°
2026-04-28 12:44 0.30101 24.92490 32019 ft 479 kts 245°
2026-04-28 12:44 0.27139 24.86525 32019 ft 479 kts 245°
2026-04-28 12:45 0.24186 24.80580 32019 ft 479 kts 245°
2026-04-28 12:45 0.21236 24.74640 32019 ft 479 kts 245°
2026-04-28 12:46 0.18282 24.68691 32019 ft 479 kts 245°
2026-04-28 12:46 0.15319 24.62726 32019 ft 479 kts 245°
2026-04-28 12:47 0.12365 24.56779 32019 ft 479 kts 245°
2026-04-28 12:47 0.09412 24.50833 32019 ft 479 kts 245°
2026-04-28 12:48 0.06449 24.44868 32019 ft 479 kts 245°
2026-04-28 12:48 0.03496 24.38923 32019 ft 479 kts 245°
2026-04-28 12:49 0.00543 24.32973 32019 ft 479 kts 245°
2026-04-28 12:49 -0.02403 24.27012 32019 ft 479 kts 245°
2026-04-28 12:50 -0.05362 24.21042 32019 ft 479 kts 245°
2026-04-28 12:50 -0.08317 24.15088 32019 ft 479 kts 245°
2026-04-28 12:51 -0.11278 24.09139 32019 ft 479 kts 245°
2026-04-28 12:51 -0.14269 24.03181 32019 ft 479 kts 245°
2026-04-28 12:52 -0.17237 23.97234 32019 ft 479 kts 245°
2026-04-28 12:52 -0.20190 23.91298 32019 ft 479 kts 245°
2026-04-28 12:53 -0.23148 23.85343 32019 ft 479 kts 245°
2026-04-28 12:53 -0.26111 23.79378 32019 ft 479 kts 245°
2026-04-28 12:54 -0.29066 23.73428 32019 ft 479 kts 245°
2026-04-28 12:54 -0.32019 23.67482 32245 ft 480 kts 245°
2026-04-28 12:54 -0.33493 23.64514 32376 ft 478 kts 245°
2026-04-28 12:55 -0.34964 23.61552 32530 ft 478 kts 245°
2026-04-28 12:55 -0.36446 23.58568 32684 ft 478 kts 245°
2026-04-28 12:55 -0.37918 23.55603 32836 ft 478 kts 245°
2026-04-28 12:55 -0.39389 23.52640 32988 ft 478 kts 245°
2026-04-28 12:56 -0.40858 23.49682 33140 ft 477 kts 245°
2026-04-28 12:56 -0.42325 23.46727 33292 ft 476 kts 245°
2026-04-28 12:56 -0.43792 23.43772 33444 ft 476 kts 245°
2026-04-28 12:56 -0.45257 23.40823 33596 ft 475 kts 245°
2026-04-28 12:57 -0.46743 23.37866 33748 ft 475 kts 244°
2026-04-28 12:57 -0.48230 23.34928 33901 ft 474 kts 244°
2026-04-28 12:57 -0.49711 23.31996 34006 ft 474 kts 244°
2026-04-28 12:58 -0.52660 23.26144 34017 ft 471 kts 244°
2026-04-28 12:58 -0.55602 23.20317 34019 ft 471 kts 244°
2026-04-28 12:59 -0.58552 23.14477 34019 ft 471 kts 244°
2026-04-28 12:59 -0.61499 23.08647 34019 ft 471 kts 244°
2026-04-28 13:00 -0.64441 23.02827 34019 ft 471 kts 244°
2026-04-28 13:00 -0.67394 22.96985 34020 ft 469 kts 244°
2026-04-28 13:01 -0.70318 22.91200 34020 ft 467 kts 244°
2026-04-28 13:01 -0.73232 22.85434 34020 ft 465 kts 244°
2026-04-28 13:02 -0.76133 22.79694 34020 ft 463 kts 244°
2026-04-28 13:02 -0.79032 22.73957 34019 ft 463 kts 244°
2026-04-28 13:03 -0.81926 22.68234 34019 ft 463 kts 244°
2026-04-28 13:03 -0.84820 22.62507 34019 ft 463 kts 244°
2026-04-28 13:04 -0.87723 22.56763 34019 ft 463 kts 244°
2026-04-28 13:04 -0.90616 22.51039 34019 ft 463 kts 244°
2026-04-28 13:05 -0.93512 22.45307 34019 ft 463 kts 244°
2026-04-28 13:05 -0.96410 22.39571 34019 ft 463 kts 244°
2026-04-28 13:06 -0.99308 22.33837 34022 ft 460 kts 244°
2026-04-28 13:06 -1.02157 22.28172 34021 ft 455 kts 244°
2026-04-28 13:07 -1.04982 22.22564 34021 ft 451 kts 244°
2026-04-28 13:07 -1.07795 22.16988 34022 ft 447 kts 244°
2026-04-28 13:08 -1.10499 22.11636 34011 ft 442 kts 244°
2026-04-28 13:08 -1.13266 22.06212 34004 ft 438 kts 244°
2026-04-28 13:09 -1.16018 22.00801 34002 ft 438 kts 244°
2026-04-28 13:09 -1.18776 21.95354 34001 ft 438 kts 244°
2026-04-28 13:10 -1.21513 21.89937 34001 ft 438 kts 244°
2026-04-28 13:10 -1.24248 21.84521 34001 ft 438 kts 244°
2026-04-28 13:11 -1.26996 21.79079 34001 ft 438 kts 244°
2026-04-28 13:11 -1.29730 21.73664 34001 ft 438 kts 244°
2026-04-28 13:12 -1.32461 21.68247 34001 ft 438 kts 244°
2026-04-28 13:12 -1.35143 21.62805 34001 ft 438 kts 244°
2026-04-28 13:13 -1.37831 21.57332 34001 ft 438 kts 244°
2026-04-28 13:13 -1.40506 21.51889 34001 ft 438 kts 244°
2026-04-28 13:14 -1.43183 21.46445 34001 ft 438 kts 244°
2026-04-28 13:14 -1.45871 21.40981 34001 ft 438 kts 244°
2026-04-28 13:15 -1.48549 21.35537 34001 ft 438 kts 244°
2026-04-28 13:15 -1.51224 21.30077 34002 ft 438 kts 244°
2026-04-28 13:16 -1.53893 21.24629 34001 ft 438 kts 244°
2026-04-28 13:16 -1.56574 21.19167 34001 ft 438 kts 244°
2026-04-28 13:17 -1.59253 21.13715 34001 ft 438 kts 244°
2026-04-28 13:17 -1.61934 21.08261 34001 ft 439 kts 244°
2026-04-28 13:18 -1.64635 21.02767 34000 ft 441 kts 244°
2026-04-28 13:18 -1.67338 20.97269 34000 ft 443 kts 244°
2026-04-28 13:19 -1.70053 20.91745 34000 ft 446 kts 244°
2026-04-28 13:19 -1.72780 20.86198 34001 ft 448 kts 244°
2026-04-28 13:20 -1.75525 20.80615 34001 ft 448 kts 244°
2026-04-28 13:20 -1.78264 20.75043 34001 ft 448 kts 244°
2026-04-28 13:21 -1.81001 20.69474 34001 ft 448 kts 244°
2026-04-28 13:21 -1.83745 20.63889 34001 ft 448 kts 244°
2026-04-28 13:22 -1.86479 20.58326 34001 ft 448 kts 244°
2026-04-28 13:22 -1.89211 20.52764 34001 ft 448 kts 244°
2026-04-28 13:23 -1.91951 20.47188 34022 ft 449 kts 244°
2026-04-28 13:23 -1.94706 20.41578 34070 ft 449 kts 244°
2026-04-28 13:24 -1.97454 20.35983 34090 ft 449 kts 244°
2026-04-28 13:24 -2.00199 20.30374 34098 ft 449 kts 244°
2026-04-28 13:25 -2.02946 20.24757 34101 ft 449 kts 244°
2026-04-28 13:25 -2.05692 20.19156 34102 ft 449 kts 244°
2026-04-28 13:26 -2.08434 20.13567 34102 ft 449 kts 244°
2026-04-28 13:26 -2.11189 20.07969 34102 ft 449 kts 244°
2026-04-28 13:27 -2.13971 20.02362 34102 ft 449 kts 244°
2026-04-28 13:27 -2.16728 19.96774 34102 ft 449 kts 244°
2026-04-28 13:28 -2.19479 19.91179 34102 ft 449 kts 244°
2026-04-28 13:28 -2.22239 19.85560 34102 ft 449 kts 244°
2026-04-28 13:29 -2.24984 19.79965 34102 ft 449 kts 244°
2026-04-28 13:29 -2.27730 19.74370 34102 ft 449 kts 244°
2026-04-28 13:30 -2.30484 19.68754 34102 ft 449 kts 244°
2026-04-28 13:30 -2.33241 19.63132 34102 ft 449 kts 244°
2026-04-28 13:31 -2.37368 19.54718 34102 ft 449 kts 244°
2026-04-28 13:31 -2.40114 19.49116 34102 ft 449 kts 244°
2026-04-28 13:32 -2.42870 19.43496 34102 ft 449 kts 244°
2026-04-28 13:32 -2.45611 19.37903 34102 ft 449 kts 244°
2026-04-28 13:33 -2.48353 19.32300 34102 ft 449 kts 244°
2026-04-28 13:33 -2.51102 19.26663 34102 ft 449 kts 244°
2026-04-28 13:34 -2.53841 19.21062 34102 ft 449 kts 244°
2026-04-28 13:34 -2.56586 19.15457 34101 ft 450 kts 244°
2026-04-28 13:35 -2.59343 19.09829 34101 ft 453 kts 244°
2026-04-28 13:35 -2.62129 19.04144 34101 ft 455 kts 244°
2026-04-28 13:36 -2.64919 18.98449 34101 ft 458 kts 244°
2026-04-28 13:36 -2.67717 18.92738 34101 ft 459 kts 244°
2026-04-28 13:37 -2.70537 18.86985 34102 ft 459 kts 244°
2026-04-28 13:37 -2.73344 18.81255 34102 ft 459 kts 244°
2026-04-28 13:38 -2.76165 18.75536 34071 ft 459 kts 244°
2026-04-28 13:38 -2.78996 18.69812 33964 ft 460 kts 244°
2026-04-28 13:39 -2.81839 18.64061 33915 ft 460 kts 244°
2026-04-28 13:39 -2.84672 18.58332 33896 ft 460 kts 244°
2026-04-28 13:40 -2.87508 18.52596 33888 ft 460 kts 244°
2026-04-28 13:40 -2.90345 18.46856 33886 ft 459 kts 244°
2026-04-28 13:41 -2.93167 18.41141 33885 ft 457 kts 244°
2026-04-28 13:41 -2.95980 18.35447 33885 ft 456 kts 243°
2026-04-28 13:42 -2.98777 18.29762 33885 ft 455 kts 243°
2026-04-28 13:42 -3.01579 18.24067 33885 ft 454 kts 243°
2026-04-28 13:43 -3.04365 18.18417 33885 ft 453 kts 243°
2026-04-28 13:43 -3.07156 18.12768 33885 ft 453 kts 243°
2026-04-28 13:44 -3.09957 18.07099 33885 ft 453 kts 243°
2026-04-28 13:44 -3.12763 18.01468 33885 ft 453 kts 242°
2026-04-28 13:45 -3.15566 17.95833 33885 ft 453 kts 242°
2026-04-28 13:45 -3.18362 17.90188 33885 ft 453 kts 243°
2026-04-28 13:46 -3.21157 17.84530 33885 ft 453 kts 243°
2026-04-28 13:46 -3.23945 17.78882 33885 ft 453 kts 243°
2026-04-28 13:47 -3.26731 17.73236 33884 ft 453 kts 243°
2026-04-28 13:47 -3.29530 17.67561 33885 ft 453 kts 243°
2026-04-28 13:48 -3.32319 17.61906 33884 ft 453 kts 243°
2026-04-28 13:48 -3.35101 17.56264 33884 ft 453 kts 243°
2026-04-28 13:49 -3.37885 17.50617 33885 ft 453 kts 243°
2026-04-28 13:49 -3.40680 17.44946 33885 ft 453 kts 243°
2026-04-28 13:50 -3.43467 17.39290 33885 ft 453 kts 243°
2026-04-28 13:50 -3.46252 17.33635 33886 ft 453 kts 243°
2026-04-28 13:51 -3.49033 17.27960 33885 ft 453 kts 243°
2026-04-28 13:51 -3.51808 17.22308 33885 ft 453 kts 243°
2026-04-28 13:52 -3.54590 17.16652 33884 ft 453 kts 243°
2026-04-28 13:52 -3.57372 17.11002 33885 ft 453 kts 243°
2026-04-28 13:53 -3.60165 17.05328 33593 ft 452 kts 243°
2026-04-28 13:53 -3.61543 17.02526 33225 ft 449 kts 243°
2026-04-28 13:53 -3.62919 16.99730 32793 ft 449 kts 242°
2026-04-28 13:54 -3.64302 16.96922 32354 ft 452 kts 242°
2026-04-28 13:54 -3.65681 16.94118 31899 ft 449 kts 242°
2026-04-28 13:54 -3.67053 16.91331 31446 ft 447 kts 242°
2026-04-28 13:54 -3.68428 16.88536 30991 ft 447 kts 242°
2026-04-28 13:55 -3.69821 16.85709 30540 ft 456 kts 242°
2026-04-28 13:55 -3.71221 16.82864 30083 ft 455 kts 242°
2026-04-28 13:55 -3.72609 16.80041 29630 ft 452 kts 242°
2026-04-28 13:55 -3.73994 16.77224 29174 ft 449 kts 242°
2026-04-28 13:56 -3.75370 16.74429 28720 ft 447 kts 242°
2026-04-28 13:56 -3.76743 16.71639 28265 ft 445 kts 242°
2026-04-28 13:56 -3.78111 16.68860 27810 ft 443 kts 242°
2026-04-28 13:56 -3.79469 16.66101 27355 ft 440 kts 242°
2026-04-28 13:57 -3.80819 16.63359 26898 ft 438 kts 242°
2026-04-28 13:57 -3.82158 16.60634 26445 ft 436 kts 242°
2026-04-28 13:57 -3.83488 16.57912 25991 ft 434 kts 242°
2026-04-28 13:57 -3.84799 16.55199 25537 ft 432 kts 242°
2026-04-28 13:58 -3.86104 16.52499 25084 ft 430 kts 242°
2026-04-28 13:58 -3.87415 16.49786 24586 ft 428 kts 242°
2026-04-28 13:58 -3.88705 16.47120 24083 ft 425 kts 242°
2026-04-28 13:58 -3.89984 16.44477 23580 ft 423 kts 242°
2026-04-28 13:59 -3.91264 16.41836 23076 ft 421 kts 242°
2026-04-28 13:59 -3.92536 16.39210 22573 ft 419 kts 242°
2026-04-28 13:59 -3.93797 16.36608 22071 ft 416 kts 242°
2026-04-28 13:59 -3.95054 16.34011 21568 ft 414 kts 242°
2026-04-28 14:00 -3.96312 16.31401 21060 ft 412 kts 242°
2026-04-28 14:00 -3.97556 16.28820 20556 ft 410 kts 242°
2026-04-28 14:00 -3.98789 16.26265 20054 ft 408 kts 242°
2026-04-28 14:00 -4.00022 16.23714 19549 ft 406 kts 242°
2026-04-28 14:01 -4.01244 16.21187 19047 ft 403 kts 242°
2026-04-28 14:01 -4.02467 16.18662 18543 ft 401 kts 242°
2026-04-28 14:01 -4.03679 16.16158 18041 ft 399 kts 242°
2026-04-28 14:01 -4.04892 16.13653 17535 ft 397 kts 242°
2026-04-28 14:02 -4.06081 16.11194 17028 ft 388 kts 242°
2026-04-28 14:02 -4.07243 16.08795 16523 ft 379 kts 242°
2026-04-28 14:02 -4.08380 16.06446 16019 ft 372 kts 242°
2026-04-28 14:02 -4.09492 16.04149 15516 ft 365 kts 242°
2026-04-28 14:03 -4.10590 16.01889 15014 ft 358 kts 242°
2026-04-28 14:03 -4.11671 15.99682 14512 ft 353 kts 242°
2026-04-28 14:03 -4.12747 15.97482 14006 ft 347 kts 242°
2026-04-28 14:03 -4.13792 15.95336 13505 ft 343 kts 242°
2026-04-28 14:04 -4.14823 15.93213 13004 ft 338 kts 242°
2026-04-28 14:04 -4.15837 15.91121 12504 ft 334 kts 242°
2026-04-28 14:04 -4.16841 15.89047 12002 ft 330 kts 242°
2026-04-28 14:04 -4.17832 15.86999 11502 ft 327 kts 242°
2026-04-28 14:05 -4.18816 15.84965 11000 ft 323 kts 242°
2026-04-28 14:05 -4.19801 15.82927 10493 ft 320 kts 242°
2026-04-28 14:05 -4.20696 15.81074 10026 ft 316 kts 242°
2026-04-28 14:05 -4.21647 15.79107 9522 ft 312 kts 242°
2026-04-28 14:06 -4.22580 15.77177 9022 ft 307 kts 242°
2026-04-28 14:06 -4.23497 15.75281 8520 ft 301 kts 242°
2026-04-28 14:06 -4.24395 15.73422 8017 ft 294 kts 242°
2026-04-28 14:06 -4.25272 15.71606 7516 ft 288 kts 242°
2026-04-28 14:07 -4.26141 15.69809 7009 ft 283 kts 242°
2026-04-28 14:07 -4.26988 15.68057 6509 ft 279 kts 242°
2026-04-28 14:07 -4.27826 15.66324 6008 ft 276 kts 242°
2026-04-28 14:07 -4.28609 15.64602 5495 ft 267 kts 251°
2026-04-28 14:08 -4.28816 15.62793 4978 ft 259 kts 270°
2026-04-28 14:08 -4.28717 15.61023 4477 ft 253 kts 277°
2026-04-28 14:08 -4.28545 15.59307 3958 ft 246 kts 262°
2026-04-28 14:08 -4.29195 15.57801 3456 ft 231 kts 226°
2026-04-28 14:09 -4.30320 15.56737 3080 ft 216 kts 224°
2026-04-28 14:09 -4.31246 15.55668 3005 ft 188 kts 231°
2026-04-28 14:09 -4.31960 15.54671 2959 ft 165 kts 234°
2026-04-28 14:09 -4.32599 15.53711 2922 ft 168 kts 235°
2026-04-28 14:10 -4.33239 15.52729 2687 ft 167 kts 235°
2026-04-28 14:10 -4.33869 15.51751 2458 ft 166 kts 236°
2026-04-28 14:10 -4.34501 15.50771 2229 ft 166 kts 236°
2026-04-28 14:10 -4.35123 15.49804 2004 ft 165 kts 236°
2026-04-28 14:11 -4.35745 15.48840 1781 ft 165 kts 236°
2026-04-28 14:11 -4.36367 15.47876 1558 ft 164 kts 236°
2026-04-28 14:11 -4.36986 15.46914 1338 ft 163 kts 236°
2026-04-28 14:11 -4.37601 15.45956 1116 ft 163 kts 236°
2026-04-28 14:12 -4.38215 15.45007 1086 ft 158 kts 235°
2026-04-28 14:12 -4.38861 15.44010 1536 ft 176 kts 236°
2026-04-28 14:12 -4.39513 15.43013 2435 ft 174 kts 235°
2026-04-28 14:12 -4.40166 15.42017 3371 ft 175 kts 235°
2026-04-28 14:13 -4.40824 15.41015 4301 ft 175 kts 234°
2026-04-28 14:13 -4.41472 15.40026 5218 ft 171 kts 234°
2026-04-28 14:13 -4.42115 15.39044 5809 ft 176 kts 234°
2026-04-28 14:13 -4.42792 15.38020 6382 ft 176 kts 234°
2026-04-28 14:14 -4.43476 15.36971 6835 ft 188 kts 234°
2026-04-28 14:14 -4.44249 15.35793 6977 ft 220 kts 234°
2026-04-28 14:14 -4.45136 15.34440 6982 ft 238 kts 235°
2026-04-28 14:14 -4.45914 15.33236 6959 ft 232 kts 235°
2026-04-28 14:15 -4.46256 15.32709 6976 ft 229 kts 237°
2026-04-28 14:15 -4.47075 15.31438 6991 ft 225 kts 237°
2026-04-28 14:15 -4.47962 15.30149 7019 ft 225 kts 228°
2026-04-28 14:15 -4.49290 15.29329 7035 ft 225 kts 194°
2026-04-28 14:16 -4.50847 15.29278 7093 ft 226 kts 171°
2026-04-28 14:16 -4.52357 15.29698 7099 ft 225 kts 162°
2026-04-28 14:16 -4.53847 15.30181 7094 ft 225 kts 162°
2026-04-28 14:16 -4.55332 15.30667 7099 ft 225 kts 161°
2026-04-28 14:17 -4.56750 15.31328 7082 ft 225 kts 142°
2026-04-28 14:17 -4.57659 15.32582 7096 ft 225 kts 109°
2026-04-28 14:17 -4.57727 15.34142 7102 ft 225 kts 75°
2026-04-28 14:17 -4.57178 15.35618 7131 ft 226 kts 69°
2026-04-28 14:18 -4.56608 15.37089 7110 ft 225 kts 69°
2026-04-28 14:18 -4.56043 15.38552 7110 ft 224 kts 69°
2026-04-28 14:18 -4.55484 15.40003 7109 ft 223 kts 69°
2026-04-28 14:18 -4.54926 15.41448 7086 ft 224 kts 69°
2026-04-28 14:19 -4.54363 15.42907 6748 ft 226 kts 69°
2026-04-28 14:19 -4.53795 15.44380 6373 ft 226 kts 69°
2026-04-28 14:19 -4.53226 15.45856 5995 ft 226 kts 69°
2026-04-28 14:19 -4.52665 15.47311 5619 ft 224 kts 69°
2026-04-28 14:20 -4.52109 15.48755 5265 ft 220 kts 69°
2026-04-28 14:20 -4.51496 15.50143 4930 ft 217 kts 60°
2026-04-28 14:20 -4.50735 15.51434 4607 ft 215 kts 59°
2026-04-28 14:20 -4.49965 15.52710 4281 ft 213 kts 59°
2026-04-28 14:21 -4.49194 15.53986 3947 ft 210 kts 59°
2026-04-28 14:21 -4.48449 15.55219 3723 ft 201 kts 59°
2026-04-28 14:21 -4.47750 15.56376 3578 ft 189 kts 59°
2026-04-28 14:21 -4.46977 15.57425 3378 ft 189 kts 40°
2026-04-28 14:22 -4.45760 15.57863 3166 ft 188 kts 358°
2026-04-28 14:22 -4.44521 15.57477 3149 ft 188 kts 336°
2026-04-28 14:22 -4.43341 15.56996 3088 ft 173 kts 339°
2026-04-28 14:22 -4.42276 15.56581 3073 ft 161 kts 339°
2026-04-28 14:23 -4.41216 15.56167 3122 ft 164 kts 339°
2026-04-28 14:23 -4.40148 15.55749 3098 ft 164 kts 339°
2026-04-28 14:23 -4.39080 15.55331 3069 ft 166 kts 339°
2026-04-28 14:23 -4.37973 15.54875 2907 ft 175 kts 336°
2026-04-28 14:24 -4.36855 15.54373 2783 ft 176 kts 335°
2026-04-28 14:24 -4.35843 15.53686 2637 ft 177 kts 313°
2026-04-28 14:24 -4.35216 15.52622 2495 ft 177 kts 290°
2026-04-28 14:24 -4.34845 15.51454 2324 ft 175 kts 287°
2026-04-28 14:25 -4.34607 15.50249 2010 ft 180 kts 259°
2026-04-28 14:25 -4.35299 15.49267 1829 ft 174 kts 220°
2026-04-28 14:25 -4.36085 15.48343 1617 ft 176 kts 239°
2026-04-28 14:25 -4.36722 15.47306 1438 ft 174 kts 237°
2026-04-28 14:26 -4.37381 15.46298 1177 ft 171 kts 237°
2026-04-28 14:26 -4.38007 15.45314 1037 ft 160 kts 237°
2026-04-28 14:26 -4.38559 15.44469 1018 ft 113 kts 237°
2026-04-28 14:26 -4.38823 15.44063 1019 ft 28 kts 235°
2026-04-28 14:27 -4.38864 15.43991 1020 ft 6 kts 17°
2026-04-28 14:27 -4.38838 15.44039 1020 ft 9 kts 86°
2026-04-28 14:27 -4.38865 15.44102 1020 ft 11 kts 137°
2026-04-28 14:27 -4.38901 15.44129 1021 ft 11 kts 145°
2026-04-28 14:28 -4.38920 15.44142 1021 ft 11 kts 145°
2026-04-28 14:28 -4.38949 15.44207 1023 ft 11 kts 71°
2026-04-28 14:28 -4.38912 15.44270 1023 ft 12 kts 57°
2026-04-28 14:28 -4.38858 15.44355 1023 ft 14 kts 57°
2026-04-28 14:29 -4.38801 15.44444 1022 ft 17 kts 58°
2026-04-28 14:29 -4.38738 15.44545 1021 ft 18 kts 57°
2026-04-28 14:29 -4.38667 15.44654 1020 ft 19 kts 56°
2026-04-28 14:29 -4.38593 15.44769 1020 ft 20 kts 57°
2026-04-28 14:30 -4.38518 15.44884 1020 ft 20 kts 56°
2026-04-28 14:30 -4.38474 15.44965 1019 ft 0 kts 69°